DAL8874 KRNO-KBZN

Flight info

Callsign DAL8874
Flight time N/A
Altitude 37000
Route ZEFFR9 BLKJK PYGOW DERMT DERSO KUBOC DLN BGMAN BGMAN1
Aircraft A21N/M-SDE2E3FGHIRWXY/LB1

Departure

Time N/A
Airport Reno Tahoe International Airport (KRNO)

Arrival

Time 2026-05-03 21:46
Airport Bozeman Yellowstone International Airport (KBZN)
Time Latitude Longitude Altitude Speed Heading
2026-05-03 20:15 40.65739 -118.54261 30853 ft 415 kts 43°
2026-05-03 20:15 40.70214 -118.49353 30887 ft 427 kts 43°
2026-05-03 20:16 40.74780 -118.44329 30885 ft 431 kts 43°
2026-05-03 20:16 40.79391 -118.39240 30880 ft 432 kts 43°
2026-05-03 20:17 40.84014 -118.34143 30883 ft 434 kts 43°
2026-05-03 20:17 40.88653 -118.29024 30877 ft 435 kts 43°
2026-05-03 20:18 40.93284 -118.23893 30874 ft 434 kts 43°
2026-05-03 20:18 40.97914 -118.18746 30869 ft 434 kts 43°
2026-05-03 20:19 41.02531 -118.13602 30866 ft 434 kts 43°
2026-05-03 20:19 41.07156 -118.08439 30882 ft 435 kts 43°
2026-05-03 20:20 41.11797 -118.03254 30867 ft 437 kts 43°
2026-05-03 20:20 41.16424 -117.98081 30864 ft 438 kts 43°
2026-05-03 20:21 41.21080 -117.92860 30855 ft 439 kts 43°
2026-05-03 20:21 41.25745 -117.87619 30845 ft 439 kts 43°
2026-05-03 20:22 41.30412 -117.82375 30849 ft 439 kts 43°
2026-05-03 20:22 41.35081 -117.77111 30849 ft 440 kts 43°
2026-05-03 20:23 41.39740 -117.71845 30853 ft 440 kts 43°
2026-05-03 20:23 41.44408 -117.66555 30864 ft 440 kts 43°
2026-05-03 20:24 41.49073 -117.61258 30857 ft 440 kts 43°
2026-05-03 20:24 41.53734 -117.55966 30866 ft 440 kts 43°
2026-05-03 20:25 41.58399 -117.50661 30867 ft 440 kts 43°
2026-05-03 20:25 41.63026 -117.45376 30870 ft 441 kts 43°
2026-05-03 20:26 41.67703 -117.40023 30873 ft 443 kts 43°
2026-05-03 20:26 41.72391 -117.34655 30878 ft 444 kts 43°
2026-05-03 20:27 41.77089 -117.29264 30875 ft 444 kts 43°
2026-05-03 20:27 41.80990 -117.24780 30879 ft 445 kts 42°
2026-05-03 20:28 41.85708 -117.19396 30881 ft 446 kts 39°
2026-05-03 20:28 41.88358 -117.17209 30876 ft 449 kts 27°
2026-05-03 20:28 41.91268 -117.15686 30886 ft 450 kts 20°
2026-05-03 20:29 41.97184 -117.12923 30886 ft 451 kts 20°
2026-05-03 20:29 42.03124 -117.10115 30883 ft 451 kts 20°
2026-05-03 20:30 42.09042 -117.07294 30894 ft 451 kts 20°
2026-05-03 20:30 42.14953 -117.04478 30554 ft 448 kts 20°
2026-05-03 20:30 42.17853 -117.03103 30373 ft 435 kts 20°
2026-05-03 20:31 42.20686 -117.01760 30015 ft 427 kts 20°
2026-05-03 20:31 42.23470 -117.00440 29497 ft 423 kts 20°
2026-05-03 20:31 42.26237 -116.99121 28975 ft 418 kts 20°
2026-05-03 20:31 42.28966 -116.97814 28462 ft 414 kts 20°
2026-05-03 20:32 42.31659 -116.96524 27958 ft 409 kts 20°
2026-05-03 20:32 42.34345 -116.95240 27449 ft 405 kts 20°
2026-05-03 20:32 42.36988 -116.93976 26954 ft 400 kts 20°
2026-05-03 20:32 42.39595 -116.92727 26464 ft 396 kts 20°
2026-05-03 20:33 42.42185 -116.91484 25990 ft 392 kts 21°
2026-05-03 20:33 42.44750 -116.90251 25508 ft 388 kts 21°
2026-05-03 20:33 42.47253 -116.89048 25038 ft 384 kts 21°
2026-05-03 20:33 42.49758 -116.87841 24570 ft 380 kts 21°
2026-05-03 20:34 42.52238 -116.86641 24112 ft 376 kts 20°
2026-05-03 20:34 42.54694 -116.85452 23672 ft 373 kts 20°
2026-05-03 20:34 42.57114 -116.84279 23178 ft 369 kts 20°
2026-05-03 20:34 42.59537 -116.83108 22664 ft 366 kts 20°
2026-05-03 20:35 42.61926 -116.81958 22161 ft 363 kts 20°
2026-05-03 20:35 42.64309 -116.80812 21637 ft 361 kts 20°
2026-05-03 20:35 42.66663 -116.79677 21131 ft 358 kts 20°
2026-05-03 20:35 42.69006 -116.78546 20646 ft 356 kts 20°
2026-05-03 20:36 42.71334 -116.77419 20180 ft 353 kts 20°
2026-05-03 20:36 42.73646 -116.76297 19713 ft 351 kts 20°
2026-05-03 20:36 42.75945 -116.75180 19241 ft 350 kts 20°
2026-05-03 20:36 42.78229 -116.74068 18785 ft 348 kts 20°
2026-05-03 20:37 42.80501 -116.72965 18348 ft 345 kts 20°
2026-05-03 20:37 42.82755 -116.71872 17825 ft 343 kts 20°
2026-05-03 20:37 42.84994 -116.70781 17303 ft 341 kts 20°
2026-05-03 20:37 42.87228 -116.69688 16982 ft 341 kts 20°
2026-05-03 20:38 42.89472 -116.68591 16954 ft 342 kts 20°
2026-05-03 20:38 42.91723 -116.67493 16961 ft 343 kts 20°
2026-05-03 20:38 42.93970 -116.66397 16955 ft 343 kts 20°
2026-05-03 20:38 42.96224 -116.65295 16956 ft 343 kts 20°
2026-05-03 20:39 42.98473 -116.64196 16952 ft 343 kts 20°
2026-05-03 20:39 43.00719 -116.63097 16960 ft 343 kts 20°
2026-05-03 20:39 43.02962 -116.62001 16951 ft 343 kts 20°
2026-05-03 20:39 43.05211 -116.60901 16948 ft 343 kts 19°
2026-05-03 20:40 43.07428 -116.59814 16945 ft 343 kts 19°
2026-05-03 20:40 43.09670 -116.58713 16939 ft 343 kts 19°
2026-05-03 20:40 43.11946 -116.57593 16945 ft 343 kts 19°
2026-05-03 20:40 43.14157 -116.56505 16933 ft 343 kts 19°
2026-05-03 20:41 43.16403 -116.55399 16940 ft 343 kts 20°
2026-05-03 20:41 43.18647 -116.54290 16941 ft 342 kts 19°
2026-05-03 20:41 43.20894 -116.53181 16940 ft 342 kts 19°
2026-05-03 20:41 43.23133 -116.52074 16946 ft 342 kts 19°
2026-05-03 20:42 43.25375 -116.50966 16941 ft 342 kts 19°
2026-05-03 20:42 43.27609 -116.49862 16942 ft 342 kts 19°
2026-05-03 20:42 43.29862 -116.48749 16938 ft 342 kts 19°
2026-05-03 20:42 43.32074 -116.47656 16946 ft 342 kts 19°
2026-05-03 20:43 43.34317 -116.46548 16949 ft 342 kts 19°
2026-05-03 20:43 43.36559 -116.45441 16942 ft 342 kts 19°
2026-05-03 20:43 43.38798 -116.44333 16952 ft 342 kts 19°
2026-05-03 20:43 43.41042 -116.43220 16958 ft 342 kts 19°
2026-05-03 20:44 43.43283 -116.42104 16952 ft 342 kts 19°
2026-05-03 20:44 43.45519 -116.40990 16954 ft 342 kts 19°
2026-05-03 20:44 43.47762 -116.39874 16954 ft 341 kts 19°
2026-05-03 20:44 43.49997 -116.38763 16959 ft 341 kts 19°
2026-05-03 20:45 43.52237 -116.37648 16961 ft 342 kts 19°
2026-05-03 20:45 43.54470 -116.36533 16951 ft 341 kts 20°
2026-05-03 20:45 43.56698 -116.35418 16955 ft 341 kts 20°
2026-05-03 20:45 43.58908 -116.34312 16954 ft 341 kts 20°
2026-05-03 20:46 43.61142 -116.33196 16943 ft 341 kts 20°
2026-05-03 20:46 43.63379 -116.32079 16939 ft 341 kts 20°
2026-05-03 20:46 43.65597 -116.30971 16943 ft 341 kts 20°
2026-05-03 20:46 43.67865 -116.29837 16942 ft 341 kts 20°
2026-05-03 20:47 43.70098 -116.28716 16937 ft 341 kts 20°
2026-05-03 20:47 43.72303 -116.27608 16939 ft 341 kts 20°
2026-05-03 20:47 43.74538 -116.26486 16934 ft 341 kts 20°
2026-05-03 20:47 43.76775 -116.25363 16931 ft 341 kts 20°
2026-05-03 20:48 43.79013 -116.24239 16914 ft 341 kts 20°
2026-05-03 20:48 43.81246 -116.23117 16912 ft 341 kts 20°
2026-05-03 20:48 43.83476 -116.21996 16913 ft 342 kts 20°
2026-05-03 20:48 43.85715 -116.20865 16920 ft 341 kts 20°
2026-05-03 20:49 43.87946 -116.19734 16928 ft 341 kts 20°
2026-05-03 20:49 43.90155 -116.18612 16924 ft 341 kts 20°
2026-05-03 20:49 43.92382 -116.17484 16916 ft 341 kts 20°
2026-05-03 20:49 43.94609 -116.16358 16917 ft 341 kts 20°
2026-05-03 20:50 43.96842 -116.15231 16920 ft 341 kts 20°
2026-05-03 20:50 43.99070 -116.14106 16925 ft 341 kts 20°
2026-05-03 20:50 44.01295 -116.12979 16910 ft 341 kts 20°
2026-05-03 20:50 44.03523 -116.11849 16923 ft 341 kts 20°
2026-05-03 20:51 44.05751 -116.10716 16922 ft 341 kts 20°
2026-05-03 20:51 44.07976 -116.09581 16923 ft 341 kts 20°
2026-05-03 20:51 44.10203 -116.08445 16914 ft 341 kts 20°
2026-05-03 20:51 44.12434 -116.07309 16915 ft 341 kts 20°
2026-05-03 20:52 44.14661 -116.06172 16911 ft 341 kts 20°
2026-05-03 20:52 44.16884 -116.05036 16914 ft 341 kts 20°
2026-05-03 20:52 44.19113 -116.03900 16915 ft 341 kts 20°
2026-05-03 20:52 44.21344 -116.02763 16919 ft 341 kts 21°
2026-05-03 20:53 44.23567 -116.01628 16916 ft 341 kts 20°
2026-05-03 20:53 44.25802 -116.00485 16925 ft 340 kts 21°
2026-05-03 20:53 44.28026 -115.99346 16920 ft 341 kts 21°
2026-05-03 20:53 44.30227 -115.98219 16919 ft 341 kts 21°
2026-05-03 20:54 44.32450 -115.97079 16918 ft 341 kts 21°
2026-05-03 20:54 44.36920 -115.94783 16931 ft 349 kts 21°
2026-05-03 20:54 44.39228 -115.93592 16927 ft 356 kts 21°
2026-05-03 20:55 44.41561 -115.92390 16937 ft 358 kts 21°
2026-05-03 20:55 44.43905 -115.91182 16926 ft 359 kts 21°
2026-05-03 20:55 44.46253 -115.89970 16929 ft 359 kts 21°
2026-05-03 20:55 44.48602 -115.88757 16929 ft 359 kts 20°
2026-05-03 20:56 44.50949 -115.87546 16929 ft 359 kts 21°
2026-05-03 20:56 44.53297 -115.86333 16945 ft 359 kts 21°
2026-05-03 20:56 44.55616 -115.85136 16942 ft 359 kts 20°
2026-05-03 20:56 44.57992 -115.83910 16947 ft 359 kts 20°
2026-05-03 20:57 44.60347 -115.82693 16952 ft 360 kts 20°
2026-05-03 20:57 44.62699 -115.81476 16956 ft 360 kts 20°
2026-05-03 20:57 44.65052 -115.80256 16971 ft 360 kts 20°
2026-05-03 20:57 44.67400 -115.79036 16975 ft 360 kts 20°
2026-05-03 20:58 44.69752 -115.77812 16982 ft 360 kts 20°
2026-05-03 20:58 44.72108 -115.76586 17000 ft 360 kts 20°
2026-05-03 20:58 44.74458 -115.75366 16979 ft 360 kts 20°
2026-05-03 20:58 44.76780 -115.74160 16977 ft 360 kts 20°
2026-05-03 20:59 44.79133 -115.72932 16977 ft 360 kts 20°
2026-05-03 20:59 44.81475 -115.71705 16768 ft 356 kts 20°
2026-05-03 20:59 44.83791 -115.70489 16220 ft 354 kts 20°
2026-05-03 20:59 44.86097 -115.69279 15987 ft 354 kts 20°
2026-05-03 21:00 44.88412 -115.68066 15976 ft 354 kts 20°
2026-05-03 21:00 44.89166 -115.67671 15977 ft 355 kts 20°
2026-05-03 21:00 44.93020 -115.65653 15976 ft 355 kts 20°
2026-05-03 21:00 44.95340 -115.64437 15968 ft 355 kts 20°
2026-05-03 21:01 44.97658 -115.63218 15967 ft 355 kts 20°
2026-05-03 21:01 44.99977 -115.61994 15959 ft 356 kts 20°
2026-05-03 21:01 45.02282 -115.60774 15957 ft 357 kts 20°
2026-05-03 21:01 45.04620 -115.59539 15956 ft 357 kts 20°
2026-05-03 21:02 45.06772 -115.58406 15954 ft 355 kts 19°
2026-05-03 21:02 45.09086 -115.57189 15951 ft 354 kts 19°
2026-05-03 21:02 45.11395 -115.55973 15956 ft 353 kts 19°
2026-05-03 21:02 45.13698 -115.54761 15945 ft 353 kts 19°
2026-05-03 21:03 45.15996 -115.53548 15949 ft 352 kts 19°
2026-05-03 21:03 45.18284 -115.52335 15947 ft 351 kts 19°
2026-05-03 21:03 45.20584 -115.51111 15951 ft 354 kts 20°
2026-05-03 21:03 45.22859 -115.49901 15948 ft 354 kts 19°
2026-05-03 21:04 45.25165 -115.48676 15943 ft 354 kts 19°
2026-05-03 21:04 45.27477 -115.47452 15938 ft 354 kts 19°
2026-05-03 21:04 45.29738 -115.46043 15938 ft 356 kts 30°
2026-05-03 21:04 45.31611 -115.43745 15940 ft 358 kts 50°
2026-05-03 21:05 45.32512 -115.41780 15937 ft 359 kts 62°
2026-05-03 21:05 45.33347 -115.38435 15933 ft 360 kts 72°
2026-05-03 21:05 45.34307 -115.33877 15931 ft 359 kts 72°
2026-05-03 21:05 45.34773 -115.31625 15932 ft 360 kts 72°
2026-05-03 21:06 45.35482 -115.28212 15931 ft 359 kts 72°
2026-05-03 21:06 45.36193 -115.24803 15928 ft 360 kts 72°
2026-05-03 21:06 45.36907 -115.21391 15929 ft 359 kts 72°
2026-05-03 21:06 45.37621 -115.17981 15934 ft 360 kts 72°
2026-05-03 21:07 45.38337 -115.14561 15928 ft 361 kts 72°
2026-05-03 21:07 45.39052 -115.11139 15928 ft 362 kts 72°
2026-05-03 21:07 45.39767 -115.07706 15930 ft 361 kts 72°
2026-05-03 21:07 45.40479 -115.04279 15929 ft 362 kts 72°
2026-05-03 21:08 45.41188 -115.00845 15926 ft 361 kts 72°
2026-05-03 21:08 45.41895 -114.97408 15922 ft 362 kts 72°
2026-05-03 21:08 45.42601 -114.93972 15931 ft 362 kts 72°
2026-05-03 21:08 45.43310 -114.90534 15928 ft 363 kts 72°
2026-05-03 21:09 45.44023 -114.87084 15931 ft 363 kts 72°
2026-05-03 21:09 45.44731 -114.83637 15931 ft 363 kts 72°
2026-05-03 21:09 45.45435 -114.80184 15938 ft 363 kts 72°
2026-05-03 21:09 45.46139 -114.76737 15933 ft 363 kts 72°
2026-05-03 21:10 45.46843 -114.73287 15930 ft 362 kts 72°
2026-05-03 21:10 45.47551 -114.69824 15934 ft 363 kts 72°
2026-05-03 21:10 45.48285 -114.66244 15939 ft 380 kts 72°
2026-05-03 21:10 45.49011 -114.62684 15942 ft 378 kts 72°
2026-05-03 21:11 45.49760 -114.58993 15941 ft 394 kts 73°
2026-05-03 21:11 45.50522 -114.55214 15940 ft 399 kts 72°
2026-05-03 21:11 45.51289 -114.51408 15948 ft 399 kts 72°
2026-05-03 21:11 45.52053 -114.47611 15947 ft 399 kts 73°
2026-05-03 21:12 45.52820 -114.43801 15947 ft 399 kts 72°
2026-05-03 21:12 45.53586 -114.39985 15944 ft 400 kts 72°
2026-05-03 21:12 45.54356 -114.36162 15947 ft 400 kts 72°
2026-05-03 21:12 45.55119 -114.32354 15947 ft 399 kts 72°
2026-05-03 21:13 45.55881 -114.28538 15946 ft 399 kts 72°
2026-05-03 21:13 45.56630 -114.24768 15944 ft 399 kts 72°
2026-05-03 21:13 45.57385 -114.20953 15946 ft 400 kts 73°
2026-05-03 21:13 45.58138 -114.17147 15944 ft 399 kts 72°
2026-05-03 21:14 45.58898 -114.13325 15948 ft 400 kts 72°
2026-05-03 21:14 45.59658 -114.09518 15953 ft 399 kts 72°
2026-05-03 21:14 45.60420 -114.05686 15950 ft 401 kts 73°
2026-05-03 21:14 45.61178 -114.01845 15949 ft 402 kts 73°
2026-05-03 21:15 45.61933 -113.97996 15951 ft 403 kts 73°
2026-05-03 21:15 45.62686 -113.94144 15950 ft 402 kts 73°
2026-05-03 21:15 45.63439 -113.90288 15951 ft 403 kts 73°
2026-05-03 21:15 45.64190 -113.86438 15949 ft 403 kts 73°
2026-05-03 21:16 45.64943 -113.82576 15947 ft 402 kts 73°
2026-05-03 21:16 45.65695 -113.78718 15953 ft 403 kts 73°
2026-05-03 21:16 45.66445 -113.74866 15953 ft 402 kts 73°
2026-05-03 21:16 45.67190 -113.71005 15953 ft 403 kts 73°
2026-05-03 21:17 45.67932 -113.67156 15954 ft 402 kts 73°
2026-05-03 21:17 45.68427 -113.64594 15958 ft 403 kts 73°
2026-05-03 21:17 45.69417 -113.59483 15958 ft 402 kts 73°
2026-05-03 21:17 45.70171 -113.55578 15958 ft 403 kts 73°
2026-05-03 21:18 45.70906 -113.51768 15967 ft 402 kts 73°
2026-05-03 21:18 45.71652 -113.47897 15967 ft 403 kts 73°
2026-05-03 21:18 45.72392 -113.44041 15969 ft 403 kts 73°
2026-05-03 21:18 45.73131 -113.40167 15966 ft 401 kts 73°
2026-05-03 21:19 45.73822 -113.36502 15989 ft 361 kts 73°
2026-05-03 21:19 45.74442 -113.33206 15958 ft 326 kts 73°
2026-05-03 21:19 45.75006 -113.30212 15960 ft 297 kts 72°
2026-05-03 21:19 45.75522 -113.27472 15962 ft 273 kts 73°
2026-05-03 21:20 45.75999 -113.24946 15961 ft 253 kts 72°
2026-05-03 21:20 45.76450 -113.22559 15969 ft 256 kts 72°
2026-05-03 21:20 45.76961 -113.19905 15981 ft 295 kts 73°
2026-05-03 21:20 45.77537 -113.16915 15970 ft 326 kts 72°
2026-05-03 21:21 45.78157 -113.13662 15961 ft 350 kts 73°
2026-05-03 21:21 45.78807 -113.10212 15958 ft 367 kts 73°
2026-05-03 21:21 45.79479 -113.06603 15957 ft 381 kts 73°
2026-05-03 21:21 45.80171 -113.02882 15961 ft 392 kts 73°
2026-05-03 21:22 45.80874 -112.99086 15961 ft 389 kts 74°
2026-05-03 21:22 45.81528 -112.95535 15958 ft 348 kts 73°
2026-05-03 21:22 45.82114 -112.92342 15954 ft 318 kts 73°
2026-05-03 21:22 45.82672 -112.89316 15958 ft 311 kts 73°
2026-05-03 21:23 45.83228 -112.86329 15956 ft 310 kts 73°
2026-05-03 21:23 45.83788 -112.83349 15953 ft 309 kts 73°
2026-05-03 21:23 45.84338 -112.80405 15958 ft 310 kts 73°
2026-05-03 21:23 45.84893 -112.77422 15951 ft 309 kts 73°
2026-05-03 21:24 45.85443 -112.74437 15949 ft 309 kts 73°
2026-05-03 21:24 45.85990 -112.71450 15948 ft 310 kts 73°
2026-05-03 21:24 45.86537 -112.68467 15948 ft 309 kts 73°
2026-05-03 21:24 45.87087 -112.65469 15951 ft 310 kts 73°
2026-05-03 21:25 45.87634 -112.62477 15956 ft 310 kts 73°
2026-05-03 21:25 45.88176 -112.59512 15948 ft 312 kts 73°
2026-05-03 21:25 45.88726 -112.56492 15949 ft 312 kts 73°
2026-05-03 21:25 45.89278 -112.53471 15956 ft 312 kts 73°
2026-05-03 21:26 45.89828 -112.50453 15957 ft 313 kts 73°
2026-05-03 21:26 45.90378 -112.47433 16055 ft 312 kts 73°
2026-05-03 21:26 45.90927 -112.44412 16053 ft 313 kts 73°
2026-05-03 21:26 45.91474 -112.41381 16051 ft 312 kts 73°
2026-05-03 21:27 45.92019 -112.38362 16054 ft 313 kts 74°
2026-05-03 21:27 45.92565 -112.35337 16050 ft 313 kts 74°
2026-05-03 21:27 45.93111 -112.32309 16040 ft 313 kts 74°
2026-05-03 21:27 45.93650 -112.29311 16033 ft 313 kts 74°
2026-05-03 21:28 45.94189 -112.26309 15881 ft 306 kts 74°
2026-05-03 21:28 45.94718 -112.23360 15222 ft 304 kts 74°
2026-05-03 21:28 45.95242 -112.20429 14548 ft 301 kts 74°
2026-05-03 21:28 45.95761 -112.17517 13885 ft 299 kts 74°
2026-05-03 21:29 45.96276 -112.14628 13179 ft 297 kts 74°
2026-05-03 21:29 45.96783 -112.11762 12488 ft 293 kts 74°
2026-05-03 21:29 45.97277 -112.08963 11815 ft 291 kts 74°
2026-05-03 21:29 45.97775 -112.06159 11178 ft 287 kts 74°
2026-05-03 21:30 45.98227 -112.03376 10524 ft 285 kts 80°
2026-05-03 21:30 45.98177 -112.00535 9947 ft 284 kts 94°
2026-05-03 21:30 45.97994 -111.97718 9285 ft 282 kts 94°
2026-05-03 21:30 45.97809 -111.94928 8671 ft 279 kts 94°
2026-05-03 21:31 45.97622 -111.92159 7968 ft 278 kts 95°
2026-05-03 21:31 45.97437 -111.89407 7361 ft 275 kts 94°
2026-05-03 21:31 45.97252 -111.86675 6897 ft 272 kts 95°
2026-05-03 21:31 45.97072 -111.84055 6806 ft 247 kts 95°
2026-05-03 21:32 45.96914 -111.81754 6844 ft 228 kts 94°
2026-05-03 21:32 45.96763 -111.79515 6818 ft 222 kts 94°
2026-05-03 21:32 45.96617 -111.77312 6816 ft 219 kts 95°
2026-05-03 21:32 45.96474 -111.75149 6815 ft 217 kts 94°
2026-05-03 21:33 45.96330 -111.72997 6818 ft 216 kts 94°
2026-05-03 21:33 45.96186 -111.70858 6814 ft 214 kts 94°
2026-05-03 21:33 45.96043 -111.68729 6815 ft 213 kts 95°
2026-05-03 21:33 45.95902 -111.66614 6821 ft 213 kts 94°
2026-05-03 21:34 45.95759 -111.64502 6814 ft 211 kts 94°
2026-05-03 21:34 45.95617 -111.62406 6817 ft 210 kts 94°
2026-05-03 21:34 45.95475 -111.60310 6816 ft 211 kts 94°
2026-05-03 21:34 45.95331 -111.58207 6817 ft 212 kts 95°
2026-05-03 21:35 45.95186 -111.56095 6827 ft 213 kts 94°
2026-05-03 21:35 45.95037 -111.54004 6825 ft 213 kts 96°
2026-05-03 21:35 45.94660 -111.51930 6834 ft 215 kts 107°
2026-05-03 21:35 45.94190 -111.49895 6844 ft 215 kts 109°
2026-05-03 21:36 45.93703 -111.47845 6850 ft 216 kts 107°
2026-05-03 21:36 45.93296 -111.45763 6849 ft 217 kts 105°
2026-05-03 21:36 45.92918 -111.43663 6855 ft 216 kts 104°
2026-05-03 21:36 45.92571 -111.41656 6855 ft 194 kts 103°
2026-05-03 21:37 45.92249 -111.39855 6856 ft 180 kts 106°
2026-05-03 21:37 45.91887 -111.38173 6851 ft 168 kts 109°
2026-05-03 21:37 45.91541 -111.36730 6818 ft 143 kts 106°
2026-05-03 21:37 45.91400 -111.35413 6656 ft 139 kts 91°
2026-05-03 21:38 45.91369 -111.33974 6363 ft 143 kts 84°
2026-05-03 21:38 45.91296 -111.32540 5886 ft 148 kts 112°
2026-05-03 21:38 45.90670 -111.31398 5481 ft 144 kts 146°
2026-05-03 21:38 45.89784 -111.30793 4919 ft 146 kts 165°
2026-05-03 21:39 45.88792 -111.30503 4733 ft 129 kts 177°
2026-05-03 21:39 45.87972 -111.30333 4583 ft 115 kts 176°
2026-05-03 21:39 45.87110 -111.30177 4553 ft 146 kts 174°
2026-05-03 21:39 45.86059 -111.29824 5267 ft 158 kts 172°
2026-05-03 21:40 45.84955 -111.29464 5930 ft 171 kts 167°
2026-05-03 21:40 45.83916 -111.28566 6422 ft 184 kts 139°
2026-05-03 21:40 45.82979 -111.27279 7068 ft 190 kts 140°
2026-05-03 21:40 45.82285 -111.25715 7414 ft 175 kts 105°
2026-05-03 21:41 45.82256 -111.24082 7143 ft 175 kts 84°
2026-05-03 21:41 45.82127 -111.22135 6995 ft 195 kts 101°
2026-05-03 21:41 45.81580 -111.20496 6588 ft 178 kts 130°
2026-05-03 21:41 45.80723 -111.19223 5715 ft 185 kts 137°
2026-05-03 21:42 45.79835 -111.17990 5221 ft 170 kts 139°
2026-05-03 21:42 45.79017 -111.16829 4856 ft 159 kts 138°
2026-05-03 21:42 45.78253 -111.15687 4615 ft 172 kts 138°
2026-05-03 21:42 45.77285 -111.14326 4912 ft 211 kts 136°
2026-05-03 21:43 45.76446 -111.12522 5425 ft 226 kts 117°
2026-05-03 21:43 45.76093 -111.10340 5918 ft 226 kts 88°
2026-05-03 21:43 45.76728 -111.08351 6220 ft 223 kts 41°
2026-05-03 21:43 45.78051 -111.07956 6564 ft 173 kts 340°
2026-05-03 21:44 45.78919 -111.09000 6222 ft 167 kts 306°
2026-05-03 21:44 45.79571 -111.10332 6127 ft 156 kts 303°
2026-05-03 21:44 45.80184 -111.11548 6063 ft 148 kts 306°
2026-05-03 21:44 45.80762 -111.12820 5699 ft 160 kts 293°
2026-05-03 21:45 45.80942 -111.14399 5440 ft 158 kts 262°
2026-05-03 21:45 45.80375 -111.15678 5087 ft 158 kts 223°
2026-05-03 21:45 45.79460 -111.16360 4685 ft 151 kts 190°
2026-05-03 21:45 45.78493 -111.15981 4525 ft 139 kts 153°
2026-05-03 21:46 45.77751 -111.15203 4456 ft 122 kts 144°
2026-05-03 21:46 45.77269 -111.14671 4459 ft 31 kts 133°
2026-05-03 21:46 45.77244 -111.14592 4460 ft 0 kts 108°
2026-05-03 21:46 45.77250 -111.14620 4459 ft 5 kts 108°
2026-05-03 21:47 45.77253 -111.14629 4459 ft 13 kts 108°
2026-05-03 21:47 45.77131 -111.14478 4466 ft 0 kts 198°
2026-05-03 21:47 45.77083 -111.14507 4467 ft 22 kts 214°
2026-05-03 21:47 45.77114 -111.14696 4463 ft 33 kts 312°
2026-05-03 21:48 45.77289 -111.14953 4461 ft 6 kts 315°
2026-05-03 21:48 45.77290 -111.14955 4461 ft 0 kts 315°
2026-05-03 21:49 45.77942 -111.16116 4458 ft 0 kts 215°